EUTELSAT HOTBIRD 13B

Last updated on Sat Apr 26 2025 00:02:40 GMT+0000 (Coordinated Universal Time)

1 29270U 06032A 25115.53717929 .00000159 00000+0 00000+0 0 9991 2 29270 0.5802 86.3332 0004023 309.8815 44.0606 1.00272893 43116
UTC large
Height (km)
Speed (km/s)
/
Latitude / Longitude
Inclination (degrees)
Orbital Period (minutes)
Azimuth
Elevation
Range (km)
Doppler Factor

Next 0 passes for location: London (51.5072 / 0.1276)

Sorry there are no passes over London.